SCP
-0 -0 -0 -0 -0 0 0 0 0 0 -0 -0 -0 -0 -0 -0 -0 -0 0 0 0 0 0 0 -0 -0 -0 -0 -0 -0 -0 -0 -0 -0 -0 -0 -0 -0 -0 -0 -0 -0 -0
0 -0 -0 -0 -0 -0 0 0 0 0 0 0 0 0 0 0 0 0 0 0 0 0 0 -0 -0 -0 -0 0 0 0 -0 -0 -0 0 0 0 -0 -0 -0 -0 -0 -0 -0
0 0 -0 -0 -0 -0 -0 0 0 0 0 0 0 0 0 0 0 0 0 -0 -0 -0 -0 -0 -0 -0 -0 0 0 0 0 -0 0 0 0 0 0 -0 -0 -0 -0 -0 -0
-0 0 0 -0 -0 -0 -0 -0 0 0 0 0 0 0 0 -0 -0 0 -0 -0 -0 -0 -0 -0 -0 0 0 -0 -0 -0 -0 -0 -0 -0 0 0 0 -0 -0 -0 -0 -0 -0
-0 0 0 -0 -0 -0 -0 -0 -0 0 -0 -0 -0 -0 -0 -0 -0 -0 0 0 0 0 0 0 0 0 0 -0 -0 -0 0 0 -0 0 0 0 0 -0 -0 -0 -0 -0 -0
-0 0 -0 -0 -0 -0 -0 -0 -0 0 0 0 0 0 0 -0 -0 0 0 0 0 0 0 0 0 0 0 0 0 0 0 0 0 -0 0 0 0 0 0 0 -0 -0 -0
-0 0 -0 -0 -0 -0 -0 -0 -0 -0 0 0 0 0 0 0 0 0 0 0 0 0 0 0 0 0 0 -0 -0 0 0 0 0 -0 -0 0 0 -0 -0 0 0 -0 -0
-0 -0 -0 -0 -0 -0 -0 -0 -0 -0 -0 -0 0 0 0 0 0 -0 -0 -0 -0 -0 0 -0 -0 -0 -0 -0 -0 0 0 0 0 -0 0 0 0 -0 0 0 0 0 -0
-0 -0 -0 -0 -0 -0 -0 -0 -0 -0 -0 -0 -0 -0 -0 -0 0 0 -0 -0 -0 -0 -0 -0 -0 -0 -0 -0 -0 -0 -0 -0 0 -0 0 0 -0 0 0 0 0 0 0
-0 -0 -0 -0 -0 -0 0 -0 -0 -0 -0 -0 -0 -0 -0 -0 -0 -0 0 -0 -0 -0 -0 -0 -0 -0 -0 -0 -0 -0 -0 -0 0 -0 -0 0 -0 -0 -0 0 0 -0 -0
-0 -0 -0 -0 -0 -0 -0 -0 -0 -0 -0 -0 -0 -0 0 -0 0 -0 -0 -0 -0 -0 -0 -0 -0 -0 -0 -0 -0 -0 -0 -0 0 -0 -0 0 -1 -1 -1 -0 0 -0 -0
-0 -0 -0 -0 -0 -0 -0 -0 -0 -0 0 0 0 0 0 0 0 0 -0 -1 -0 -0 -0 0 -0 0 0 0 -0 -0 -0 -0 -0 -0 -0 -0 -1 -1 -1 -1 -0 -0 -1
-0 -0 -0 -0 -0 -0 -0 -0 -0 -0 -0 -0 -0 -0 0 0 0 0 0 0 0 0 0 0 0 -0 0 0 -0 0 -0 -0 -0 -0 -0 -1 -2 -1 -1 -1 -1 -0 -1
-0 -0 -0 -0 -0 -0 0 -0 -0 -0 -0 -0 -0 -0 -0 0 0 -0 0 0 0 0 0 0 0 0 0 0 0 0 -0 0 -0 0 -0 -1 -3 -3 -2 -1 -1 -1 -1
-0 -0 -0 -0 -0 -0 -0 -0 -0 -0 -0 -0 -0 -0 0 0 0 -0 -0 0 0 0 0 0 0 0 0 0 0 -0 -0 -0 0 -0 -0 -1 -1 -1 -1 -1 -1 -1 -1
0 0 0 -0 -0 -0 -0 -0 -0 0 -0 0 -0 -0 -0 0 0 0 -0 0 0 0 0 0 0 0 0 0 0 0 -0 -0 -0 -0 0 -0 -0 -0 -0 -0 -0 -1 -1
0 0 -0 -0 0 0 0 0 0 -0 0 0 -0 0 0 0 0 0 -0 -0 -0 -0 0 0 0 0 0 0 0 0 0 0 0 0 0 0 0 -0 -0 -0 -0 -0 -0
0 0 0 0 0 0 0 0 0 0 -0 0 0 0 -0 0 0 0 0 0 -0 -0 0 0 0 0 0 0 0 0 0 0 0 0 0 0 0 -0 -0 -0 -0 -0 -0
-0 0 -0 -0 0 0 0 0 0 0 -0 -0 0 0 -0 0 0 0 0 0 0 0 0 0 0 0 0 0 0 0 0 0 0 0 0 -0 0 0 0 -0 -0 -0 -0
-0 -0 -0 -0 -0 -0 0 0 0 0 -0 -0 -0 0 -0 0 0 0 0 0 0 0 0 0 0 0 0 0 0 0 0 0 0 0 0 0 1 0 -0 0 0 -0 -0
-0 -0 0 0 -0 0 0 0 0 0 0 0 0 0 0 0 0 0 0 0 0 0 0 0 0 0 0 0 0 0 0 0 0 0 0 0 0 0 0 -0 0 0 -0
-0 -0 0 0 -0 -0 0 0 0 0 0 0 0 0 0 0 0 0 1 0 0 0 0 0 1 0 0 0 0 0 0 0 0 0 0 0 -0 0 0 0 0 -0 0
-0 -0 0 0 0 -0 -0 0 0 0 0 0 0 0 0 0 0 0 0 0 0 0 0 0 0 1 0 0 0 0 0 0 0 0 0 0 0 0 0 0 0 0 0
-0 -0 -0 0 0 0 0 0 0 0 0 0 0 0 0 0 0 0 0 0 0 1 0 0 0 0 1 0 0 0 0 0 0 0 0 0 -0 -0 -0 0 0 0 0
-0 -0 -0 -0 0 0 0 0 0 0 0 0 0 0 0 0 0 -0 -0 0 0 1 1 0 0 1 1 1 1 0 0 0 0 0 0 0 0 -0 0 -0 0 1 0
-0 -0 -0 -0 0 0 0 0 1 0 0 0 0 0 0 0 1 0 0 1 1 1 1 1 1 1 1 2 1 1 1 1 0 0 0 0 0 0 0 1 0 0 0
Wind_Speed_500mb
47 48 50 48 45 45 47 47 49 51 52 51 49 47 46 45 42 38 33 29 26 21 17 15 13 11 9 8 6 4 3 3 1 5 8 10 13 11 16 25 24 15 13
59 52 52 49 47 48 47 47 51 51 51 50 47 43 38 35 33 30 25 22 17 15 13 10 8 5 4 3 3 3 3 3 2 5 9 13 17 12 13 14 13 17 11
61 56 54 52 51 51 49 48 49 49 46 42 37 34 30 28 25 22 19 16 12 10 7 3 2 3 2 2 1 1 2 1 7 11 12 16 9 6 11 14 10 13 12
63 59 56 54 53 52 50 50 48 48 45 38 32 28 25 24 23 20 17 14 9 6 5 6 6 5 5 4 3 2 1 6 12 18 11 11 8 14 14 11 13 16 14
64 60 57 54 53 51 48 47 47 44 35 32 28 24 22 22 20 18 15 12 9 8 8 7 7 7 7 7 7 5 3 4 17 20 13 14 12 13 4 11 16 16 16
64 61 57 54 51 49 47 45 41 35 31 28 25 23 21 20 18 15 13 11 11 10 9 8 8 10 11 11 10 10 9 8 17 22 6 8 11 8 6 13 17 18 20
59 60 57 52 48 46 43 40 38 34 29 24 21 19 18 18 16 14 13 12 10 10 10 11 13 15 14 13 11 11 13 14 16 15 25 10 16 12 9 10 16 22 21
52 58 55 52 47 44 41 37 34 30 26 22 20 19 18 17 15 13 11 11 11 12 14 16 16 16 15 14 13 12 13 15 19 23 19 17 24 13 15 10 18 24 25
46 48 51 51 48 44 40 37 33 29 24 21 21 21 19 17 15 11 7 9 12 14 14 14 15 16 16 17 16 14 15 15 17 23 21 13 20 25 19 13 18 24 22
51 40 45 49 49 46 42 37 33 29 25 23 22 21 20 16 13 5 4 8 10 11 13 16 20 20 21 23 20 19 18 18 15 21 31 25 24 36 24 21 17 21 24
44 37 51 50 49 45 41 37 34 30 27 25 22 20 18 14 13 10 7 9 10 11 11 18 22 24 21 21 18 13 13 15 12 21 28 26 21 27 24 19 21 22 24
43 33 49 50 49 46 42 37 31 28 27 25 22 19 15 12 9 5 9 9 11 11 17 19 26 24 20 18 20 15 22 16 11 18 23 24 26 31 24 24 21 21 21
38 31 33 37 43 41 37 31 20 20 20 19 18 19 12 14 6 6 12 13 14 18 18 14 27 22 16 16 13 24 27 37 22 20 20 27 31 29 19 22 17 19 18
52 37 32 26 27 30 34 26 9 15 13 7 4 3 6 13 12 13 15 19 19 24 19 16 23 21 31 31 28 38 30 24 23 30 27 34 42 34 26 26 20 20 19
59 51 43 38 29 33 35 34 17 8 9 5 7 11 11 11 14 19 12 14 15 19 22 19 23 24 17 15 14 39 36 27 26 27 28 29 50 47 33 27 25 22 22
55 47 50 49 42 37 36 30 21 17 22 17 17 21 17 15 9 12 12 19 16 14 25 27 26 29 19 18 28 18 23 31 30 26 34 23 36 38 30 35 27 24 21
57 51 54 53 48 46 48 39 40 35 29 27 26 26 26 24 19 24 27 22 22 15 9 20 22 27 24 24 29 29 31 18 17 24 34 26 19 44 44 30 34 26 22
60 61 55 54 52 47 52 53 48 47 37 31 25 25 28 28 27 21 34 30 21 15 18 20 22 23 26 26 32 29 25 20 26 36 25 22 27 38 28 20 32 26 25
64 64 58 57 53 46 42 59 53 47 44 37 32 32 30 31 29 27 27 19 21 15 18 25 25 30 32 33 27 29 27 25 31 21 31 50 45 26 31 30 16 15 25
62 62 64 59 54 48 41 35 47 43 38 40 39 32 32 34 34 31 19 18 22 20 22 24 30 31 26 31 23 27 26 30 30 28 20 35 24 25 48 24 21 17 15
63 64 68 67 62 52 49 44 39 46 43 41 36 44 35 31 31 29 30 22 24 26 26 25 31 28 28 21 26 21 24 22 21 23 31 18 24 21 19 34 26 18 20
67 65 66 67 63 57 52 48 42 35 40 30 30 32 34 36 38 42 41 35 29 31 30 31 23 31 32 21 20 19 13 18 16 23 28 23 15 11 15 33 22 22 23
69 71 67 64 64 62 59 50 40 26 33 36 37 31 29 33 37 39 39 42 38 35 38 39 40 37 34 27 21 16 12 8 29 25 22 14 9 19 13 16 22 28 22
76 71 67 64 61 63 61 58 49 39 35 33 38 40 39 38 39 36 36 39 37 43 45 44 43 45 36 34 23 22 21 26 33 17 25 25 21 5 20 17 28 27 28
82 79 73 66 63 59 60 61 51 45 46 43 39 42 40 42 48 49 45 45 49 46 44 43 45 46 44 38 30 27 25 30 30 30 34 27 28 16 12 16 24 33 37
83 78 74 69 64 58 52 53 57 51 45 43 35 39 40 43 47 51 59 61 58 54 46 35 34 41 45 51 48 45 37 33 35 26 36 42 37 28 17 28 34 36 39
Wind_Direction_500mb
162 153 145 142 143 142 141 139 136 134 137 141 141 141 142 143 144 145 144 141 139 136 132 130 136 143 147 163 181 204 230 246 197 107 103 109 116 121 134 135 128 129 116
156 154 149 147 145 143 142 141 137 135 138 142 142 143 145 145 147 147 146 147 146 144 134 129 135 149 170 205 248 265 264 260 204 179 146 127 119 128 147 153 154 136 143
157 152 149 149 147 145 144 142 140 137 138 141 144 147 150 150 153 158 160 160 158 165 170 173 248 269 265 267 291 0 60 103 151 170 172 155 39 144 161 186 207 153 151
158 152 150 150 149 149 147 146 146 144 141 142 144 149 155 158 161 165 169 174 178 188 219 272 276 278 283 292 309 322 188 103 146 157 165 186 250 239 207 178 220 188 170
158 155 153 151 151 151 152 150 151 153 153 154 155 155 161 169 169 170 176 187 204 229 243 247 263 274 287 295 296 284 263 158 155 154 179 135 148 72 213 187 216 199 184
158 159 157 155 154 155 158 161 162 164 165 167 168 167 169 171 176 185 195 214 228 233 241 250 259 272 279 282 279 271 249 214 179 165 184 178 175 302 229 219 210 205 197
159 160 162 160 160 160 163 165 166 169 172 175 179 181 180 185 194 211 224 231 243 255 260 268 278 285 287 284 274 261 253 229 201 174 169 210 227 247 309 220 214 211 203
153 161 163 165 165 167 169 171 174 176 179 183 192 198 204 208 211 215 233 257 268 275 286 291 290 291 291 286 277 263 250 238 223 200 179 207 226 251 284 252 225 213 213
163 163 167 168 169 172 175 175 179 183 189 198 204 205 205 209 216 229 249 274 284 294 302 302 298 294 291 287 279 271 263 247 228 211 197 192 226 244 263 285 250 228 220
178 176 177 175 177 178 180 182 184 190 198 202 196 197 199 199 196 174 307 315 316 323 321 315 307 300 291 285 281 276 267 263 251 221 204 209 238 257 267 270 264 247 232
178 189 183 182 182 183 183 187 190 196 201 200 195 196 195 199 193 157 58 339 351 322 303 310 306 290 278 274 265 247 256 264 235 207 205 207 224 237 257 271 262 261 255
173 178 186 186 185 186 187 191 196 205 205 205 203 206 206 214 162 184 3 313 328 308 323 299 308 272 266 272 268 267 292 290 216 199 214 227 237 240 252 271 263 256 258
181 187 186 184 188 189 184 175 190 219 208 211 215 214 194 169 178 285 275 296 298 287 308 318 327 291 269 271 271 280 277 277 256 237 234 241 238 234 240 250 259 253 252
181 187 186 192 179 177 188 195 233 207 172 169 199 310 316 238 229 238 247 264 299 310 316 292 330 336 322 291 280 278 263 253 243 267 261 258 249 240 237 244 274 279 267
184 187 189 191 189 175 195 208 214 227 211 237 251 276 298 290 228 203 193 255 280 296 297 302 328 322 316 317 303 302 278 275 257 250 255 257 242 241 233 238 257 267 277
186 190 192 195 189 184 198 198 213 235 250 238 255 262 269 279 276 194 250 254 265 284 288 284 312 309 309 303 303 270 330 272 258 255 235 245 240 231 248 250 249 251 262
188 191 197 196 195 191 194 202 207 202 200 220 245 255 262 261 287 243 229 233 243 276 266 299 293 305 290 295 306 311 318 319 269 264 279 234 240 243 264 259 235 233 241
193 190 201 205 202 206 216 209 219 201 194 211 241 245 252 265 278 283 235 244 241 250 277 270 276 305 310 315 313 321 321 291 336 293 308 264 263 233 241 290 241 233 218
201 191 200 210 211 220 224 227 219 216 210 204 215 240 250 260 270 283 259 240 206 244 263 274 271 287 302 306 297 308 318 312 311 304 268 307 267 255 272 285 225 281 236
204 199 196 210 215 219 227 232 227 219 214 209 214 217 241 260 264 280 279 247 226 246 260 265 282 285 294 314 310 315 313 308 298 293 283 255 275 293 248 246 266 281 240
203 201 199 204 215 218 221 224 227 225 216 219 220 220 231 249 260 271 281 279 243 249 263 275 282 271 293 315 300 306 316 308 305 325 324 279 252 260 271 239 256 266 272
205 206 208 209 215 221 227 231 238 241 229 229 235 232 226 238 251 260 266 268 269 244 258 269 272 284 290 299 291 302 313 307 303 321 318 308 222 248 253 229 242 274 278
209 211 213 214 217 221 229 231 238 237 228 229 239 239 242 248 257 268 271 269 266 262 253 257 263 274 288 291 278 284 299 281 313 314 331 332 297 284 254 248 253 260 274
210 216 219 219 219 220 224 230 234 227 224 223 236 253 254 260 268 272 279 278 280 268 258 253 260 262 274 275 266 260 281 289 292 290 316 313 324 264 239 245 258 252 261
206 212 219 221 224 225 224 230 230 225 231 232 237 243 247 260 270 272 274 276 277 277 271 261 256 254 257 259 262 252 275 269 282 274 295 302 300 293 259 240 250 260 255
205 209 214 219 223 227 231 230 226 229 235 236 241 253 259 261 269 275 277 276 275 275 272 272 267 260 254 257 263 264 263 263 272 270 271 287 294 301 294 286 263 255 251
Wind_Speed_850mb
47 48 50 48 45 45 47 47 49 51 52 51 49 47 46 45 42 38 33 29 26 21 17 15 13 11 9 8 6 4 3 3 1 5 8 10 13 11 16 25 24 15 13
59 52 52 49 47 48 47 47 51 51 51 50 47 43 38 35 33 30 25 22 17 15 13 10 8 5 4 3 3 3 3 3 2 5 9 13 17 12 13 14 13 17 11
61 56 54 52 51 51 49 48 49 49 46 42 37 34 30 28 25 22 19 16 12 10 7 3 2 3 2 2 1 1 2 1 7 11 12 16 9 6 11 14 10 13 12
63 59 56 54 53 52 50 50 48 48 45 38 32 28 25 24 23 20 17 14 9 6 5 6 6 5 5 4 3 2 1 6 12 18 11 11 8 14 14 11 13 16 14
64 60 57 54 53 51 48 47 47 44 35 32 28 24 22 22 20 18 15 12 9 8 8 7 7 7 7 7 7 5 3 4 17 20 13 14 12 13 4 11 16 16 16
64 61 57 54 51 49 47 45 41 35 31 28 25 23 21 20 18 15 13 11 11 10 9 8 8 10 11 11 10 10 9 8 17 22 6 8 11 8 6 13 17 18 20
59 60 57 52 48 46 43 40 38 34 29 24 21 19 18 18 16 14 13 12 10 10 10 11 13 15 14 13 11 11 13 14 16 15 25 10 16 12 9 10 16 22 21
52 58 55 52 47 44 41 37 34 30 26 22 20 19 18 17 15 13 11 11 11 12 14 16 16 16 15 14 13 12 13 15 19 23 19 17 24 13 15 10 18 24 25
46 48 51 51 48 44 40 37 33 29 24 21 21 21 19 17 15 11 7 9 12 14 14 14 15 16 16 17 16 14 15 15 17 23 21 13 20 25 19 13 18 24 22
51 40 45 49 49 46 42 37 33 29 25 23 22 21 20 16 13 5 4 8 10 11 13 16 20 20 21 23 20 19 18 18 15 21 31 25 24 36 24 21 17 21 24
44 37 51 50 49 45 41 37 34 30 27 25 22 20 18 14 13 10 7 9 10 11 11 18 22 24 21 21 18 13 13 15 12 21 28 26 21 27 24 19 21 22 24
43 33 49 50 49 46 42 37 31 28 27 25 22 19 15 12 9 5 9 9 11 11 17 19 26 24 20 18 20 15 22 16 11 18 23 24 26 31 24 24 21 21 21
38 31 33 37 43 41 37 31 20 20 20 19 18 19 12 14 6 6 12 13 14 18 18 14 27 22 16 16 13 24 27 37 22 20 20 27 31 29 19 22 17 19 18
52 37 32 26 27 30 34 26 9 15 13 7 4 3 6 13 12 13 15 19 19 24 19 16 23 21 31 31 28 38 30 24 23 30 27 34 42 34 26 26 20 20 19
59 51 43 38 29 33 35 34 17 8 9 5 7 11 11 11 14 19 12 14 15 19 22 19 23 24 17 15 14 39 36 27 26 27 28 29 50 47 33 27 25 22 22
55 47 50 49 42 37 36 30 21 17 22 17 17 21 17 15 9 12 12 19 16 14 25 27 26 29 19 18 28 18 23 31 30 26 34 23 36 38 30 35 27 24 21
57 51 54 53 48 46 48 39 40 35 29 27 26 26 26 24 19 24 27 22 22 15 9 20 22 27 24 24 29 29 31 18 17 24 34 26 19 44 44 30 34 26 22
60 61 55 54 52 47 52 53 48 47 37 31 25 25 28 28 27 21 34 30 21 15 18 20 22 23 26 26 32 29 25 20 26 36 25 22 27 38 28 20 32 26 25
64 64 58 57 53 46 42 59 53 47 44 37 32 32 30 31 29 27 27 19 21 15 18 25 25 30 32 33 27 29 27 25 31 21 31 50 45 26 31 30 16 15 25
62 62 64 59 54 48 41 35 47 43 38 40 39 32 32 34 34 31 19 18 22 20 22 24 30 31 26 31 23 27 26 30 30 28 20 35 24 25 48 24 21 17 15
63 64 68 67 62 52 49 44 39 46 43 41 36 44 35 31 31 29 30 22 24 26 26 25 31 28 28 21 26 21 24 22 21 23 31 18 24 21 19 34 26 18 20
67 65 66 67 63 57 52 48 42 35 40 30 30 32 34 36 38 42 41 35 29 31 30 31 23 31 32 21 20 19 13 18 16 23 28 23 15 11 15 33 22 22 23
69 71 67 64 64 62 59 50 40 26 33 36 37 31 29 33 37 39 39 42 38 35 38 39 40 37 34 27 21 16 12 8 29 25 22 14 9 19 13 16 22 28 22
76 71 67 64 61 63 61 58 49 39 35 33 38 40 39 38 39 36 36 39 37 43 45 44 43 45 36 34 23 22 21 26 33 17 25 25 21 5 20 17 28 27 28
82 79 73 66 63 59 60 61 51 45 46 43 39 42 40 42 48 49 45 45 49 46 44 43 45 46 44 38 30 27 25 30 30 30 34 27 28 16 12 16 24 33 37
83 78 74 69 64 58 52 53 57 51 45 43 35 39 40 43 47 51 59 61 58 54 46 35 34 41 45 51 48 45 37 33 35 26 36 42 37 28 17 28 34 36 39
Wind_Direction_850mb
162 153 145 142 143 142 141 139 136 134 137 141 141 141 142 143 144 145 144 141 139 136 132 130 136 143 147 163 181 204 230 246 197 107 103 109 116 121 134 135 128 129 116
156 154 149 147 145 143 142 141 137 135 138 142 142 143 145 145 147 147 146 147 146 144 134 129 135 149 170 205 248 265 264 260 204 179 146 127 119 128 147 153 154 136 143
157 152 149 149 147 145 144 142 140 137 138 141 144 147 150 150 153 158 160 160 158 165 170 173 248 269 265 267 291 0 60 103 151 170 172 155 39 144 161 186 207 153 151
158 152 150 150 149 149 147 146 146 144 141 142 144 149 155 158 161 165 169 174 178 188 219 272 276 278 283 292 309 322 188 103 146 157 165 186 250 239 207 178 220 188 170
158 155 153 151 151 151 152 150 151 153 153 154 155 155 161 169 169 170 176 187 204 229 243 247 263 274 287 295 296 284 263 158 155 154 179 135 148 72 213 187 216 199 184
158 159 157 155 154 155 158 161 162 164 165 167 168 167 169 171 176 185 195 214 228 233 241 250 259 272 279 282 279 271 249 214 179 165 184 178 175 302 229 219 210 205 197
159 160 162 160 160 160 163 165 166 169 172 175 179 181 180 185 194 211 224 231 243 255 260 268 278 285 287 284 274 261 253 229 201 174 169 210 227 247 309 220 214 211 203
153 161 163 165 165 167 169 171 174 176 179 183 192 198 204 208 211 215 233 257 268 275 286 291 290 291 291 286 277 263 250 238 223 200 179 207 226 251 284 252 225 213 213
163 163 167 168 169 172 175 175 179 183 189 198 204 205 205 209 216 229 249 274 284 294 302 302 298 294 291 287 279 271 263 247 228 211 197 192 226 244 263 285 250 228 220
178 176 177 175 177 178 180 182 184 190 198 202 196 197 199 199 196 174 307 315 316 323 321 315 307 300 291 285 281 276 267 263 251 221 204 209 238 257 267 270 264 247 232
178 189 183 182 182 183 183 187 190 196 201 200 195 196 195 199 193 157 58 339 351 322 303 310 306 290 278 274 265 247 256 264 235 207 205 207 224 237 257 271 262 261 255
173 178 186 186 185 186 187 191 196 205 205 205 203 206 206 214 162 184 3 313 328 308 323 299 308 272 266 272 268 267 292 290 216 199 214 227 237 240 252 271 263 256 258
181 187 186 184 188 189 184 175 190 219 208 211 215 214 194 169 178 285 275 296 298 287 308 318 327 291 269 271 271 280 277 277 256 237 234 241 238 234 240 250 259 253 252
181 187 186 192 179 177 188 195 233 207 172 169 199 310 316 238 229 238 247 264 299 310 316 292 330 336 322 291 280 278 263 253 243 267 261 258 249 240 237 244 274 279 267
184 187 189 191 189 175 195 208 214 227 211 237 251 276 298 290 228 203 193 255 280 296 297 302 328 322 316 317 303 302 278 275 257 250 255 257 242 241 233 238 257 267 277
186 190 192 195 189 184 198 198 213 235 250 238 255 262 269 279 276 194 250 254 265 284 288 284 312 309 309 303 303 270 330 272 258 255 235 245 240 231 248 250 249 251 262
188 191 197 196 195 191 194 202 207 202 200 220 245 255 262 261 287 243 229 233 243 276 266 299 293 305 290 295 306 311 318 319 269 264 279 234 240 243 264 259 235 233 241
193 190 201 205 202 206 216 209 219 201 194 211 241 245 252 265 278 283 235 244 241 250 277 270 276 305 310 315 313 321 321 291 336 293 308 264 263 233 241 290 241 233 218
201 191 200 210 211 220 224 227 219 216 210 204 215 240 250 260 270 283 259 240 206 244 263 274 271 287 302 306 297 308 318 312 311 304 268 307 267 255 272 285 225 281 236
204 199 196 210 215 219 227 232 227 219 214 209 214 217 241 260 264 280 279 247 226 246 260 265 282 285 294 314 310 315 313 308 298 293 283 255 275 293 248 246 266 281 240
203 201 199 204 215 218 221 224 227 225 216 219 220 220 231 249 260 271 281 279 243 249 263 275 282 271 293 315 300 306 316 308 305 325 324 279 252 260 271 239 256 266 272
205 206 208 209 215 221 227 231 238 241 229 229 235 232 226 238 251 260 266 268 269 244 258 269 272 284 290 299 291 302 313 307 303 321 318 308 222 248 253 229 242 274 278
209 211 213 214 217 221 229 231 238 237 228 229 239 239 242 248 257 268 271 269 266 262 253 257 263 274 288 291 278 284 299 281 313 314 331 332 297 284 254 248 253 260 274
210 216 219 219 219 220 224 230 234 227 224 223 236 253 254 260 268 272 279 278 280 268 258 253 260 262 274 275 266 260 281 289 292 290 316 313 324 264 239 245 258 252 261
206 212 219 221 224 225 224 230 230 225 231 232 237 243 247 260 270 272 274 276 277 277 271 261 256 254 257 259 262 252 275 269 282 274 295 302 300 293 259 240 250 260 255
205 209 214 219 223 227 231 230 226 229 235 236 241 253 259 261 269 275 277 276 275 275 272 272 267 260 254 257 263 264 263 263 272 270 271 287 294 301 294 286 263 255 251